Regional Weather Roundup
Issued by NWS

Home | Current Version | Previous Version | Text Only | Print | Product List | Glossary Off
Versions: 1 2 3 4 5 6 7 8 9 10 11 12 13 14 15 16 17 18 19 20 21 22 23 24 25 26 27 28 29 30 31 32 33 34 35 36 37 38 39 40 41 42 43 44 45 46 47 48 49 50

000
ASUS43 KIND 251700
RWRIN

WEATHER ROUNDUP FOR INDIANA
NATIONAL WEATHER SERVICE INDIANAPOLIS IN
100 PM EDT MON SEP 25 2017

NOTE: "FAIR" INDICATES FEW OR NO CLOUDS BELOW 12,000 FEET WITH NO
SIGNIFICANT WEATHER AND/OR OBSTRUCTIONS TO VISIBILITY.

* - STATION DOES NOT REPORT WEATHER SUCH AS PRECIPITATION OR FOG.

+ - STATION NOT QUALITY CONTROLLED BY THE NATIONAL WEATHER SERVICE.
    USE DATA WITH CAUTION...ESPECIALLY DEWPOINT AND RELATIVE
    HUMIDITY OBSERVATIONS.

INZ001>003-010>013-019-020-251800-
NORTHWEST INDIANA

CITY           SKY/WX    TMP DP  RH WIND       PRES   REMARKS

$$

LMZ046-743>745-251800-
SOUTHERN LAKE MICHIGAN

STATION/POSITION TIME  TEMP    WIND        PRES    WAVE
                       AIR SEA DIR/SP/G            HT
                 (UTC) (F)     (DEG/KT/KT) (MB)    (FT)
BURNS HARBOR     1640   86     200/  1/  7 1016.6F
MICHIGAN CITY    1630   82     160/  2/  3   N/A
5NW MICH CITY    1650   79 74  150/  4/  4   N/A     0

$$

INZ004-005-014>016-021>024-251800-
NORTH CENTRAL INDIANA

CITY           SKY/WX    TMP DP  RH WIND       PRES   REMARKS
ELKHART        PTSUNNY   84  55  37 CALM      30.05F
GOSHEN         SUNNY     85  55  35 CALM      30.05F
SOUTH BEND     MOSUNNY   83  58  42 VRB3      30.05F

$$

INZ006>009-017-018-025>027-251800-
NORTHEAST INDIANA

CITY           SKY/WX    TMP DP  RH WIND       PRES   REMARKS
FORT WAYNE     MOSUNNY   86  55  34 CALM      30.06F
KENDALLVILLE + SUNNY     84  58  41 CALM      30.07F

$$

INZ028-029-035-036-043>045-051>053-251800-
WEST CENTRAL INDIANA

CITY           SKY/WX    TMP DP  RH WIND       PRES   REMARKS
LAFAYETTE      NOT AVBL
TERRE HAUTE    SUNNY     87  63  44 S6        30.02F

$$

INZ030>032-037>040-046>048-054>057-064-065-251800-
CENTRAL INDIANA

CITY           SKY/WX    TMP DP  RH WIND       PRES   REMARKS
ANDERSON       SUNNY     84  57  39 CALM      30.06F
COLUMBUS       SUNNY     82  57  42 CALM      30.05F
GREENWOOD *+   SUNNY     88  63  43 SE3       30.06S
INDIANAPOLIS   MOSUNNY   86  60  41 CALM      30.04F
-EAGLE CREEK   SUNNY     86  56  35 SE6       30.04F
KOKOMO +       SUNNY     86  58  38 CALM      30.06F
MT COMFORT *+  SUNNY     84  61  45 CALM      30.06F
SHELBYVILLE    SUNNY     87  60  40 W3        30.04F

$$

INZ033-034-041-042-049-050-058-059-251800-
EAST CENTRAL INDIANA

CITY           SKY/WX    TMP DP  RH WIND       PRES   REMARKS
MUNCIE         SUNNY     87  57  35 VRB3      30.05F
RICHMOND +     SUNNY     81  59  47 CALM      30.08F

$$

INZ060-061-067>069-081>083-085>088-251800-
SOUTHWEST INDIANA

CITY           SKY/WX    TMP DP  RH WIND       PRES   REMARKS
EVANSVILLE     MOSUNNY   86  67  52 SW5       30.03F

$$

INZ062-063-066-070>080-084-089>092-251800-
SOUTH CENTRAL AND SOUTHEAST INDIANA

CITY           SKY/WX    TMP DP  RH WIND       PRES   REMARKS
BLOOMINGTON    PTSUNNY   88  61  40 NW3       30.04F
MADISON *+     MOSUNNY   84  64  51 S5        30.07F
SEYMOUR +      SUNNY     88  63  42 SE3       30.04F

$$




USA.gov is the U.S. government's official web portal to all federal, state and local government web resources and services.